Fargo, ND

9:36 AM CST on December 09, 2019 (GMT -0600)
Hector International

Weather History for KFAR - November, 2019

Change the Weather History Date:

Tuesday, November 19, 2019

  Actual Average Record
Temperature  
Mean Temperature 38 °F 27 °F  
Max Temperature 44 °F 35 °F 67 °F (1917)
Min Temperature 33 °F 18 °F -17 °F (1896)
Degree Days  
Heating Degree Days 26 38  
Month to date heating degree days 736 624  
Since 1 July heating degree days 1671 1500  
Cooling Degree Days 0 0  
Month to date cooling degree days 0 0  
Year to date cooling degree days 527 551  
Moisture  
Dew Point 34 °F    
Average Humidity 81    
Maximum Humidity 96    
Minimum Humidity 73    
Precipitation  
Precipitation 0.00 in 0.03 in 0.40 in (1983)
Month to date precipitation 0.25 0.68  
Year to date precipitation 28.73 21.43  
Snow  
Snow 0.00 in 0.30 in 4.60 in (1992)
Month to date snowfall 1.7 4.1  
Since 1 July snowfall 6.2 4.8  
Since 1 September snowfall 6.2 4.8  
Snow Depth 0.00 in    
Sea Level Pressure  
Sea Level Pressure 29.83 in    
Wind  
Wind Speed 9 mph ()    
Max Wind Speed 15 mph    
Max Gust Speed 20 mph    
Visibility 10.0 miles    
Events      
T = Trace of Precipitation, MM = Missing Value Source: Averaged Metar Reports

Daily Weather History Graph

Daily Weather History Graph

Search for Another Location

Airport or City:

Astronomy

Nov. 19, 2019 Rise Set
Actual Time 7:35 AM CST 4:48 PM CST
Civil Twilight 7:02 AM CST 5:22 PM CST
Nautical Twilight 6:25 AM CST 5:59 PM CST
Astronomical Twilight 5:49 AM CST 6:35 PM CST
Moon 11:50 PM CST (11/19) 1:44 PM CST (11/19)
Length of Visible Light 10h 20m
Length of Day
9h 13m
Waning Gibbous, 51% of the Moon is Illuminated
Nov 19
Waning Gibbous
Nov 19
Last Quarter
Nov 26
New
Dec 4
First Quarter
Dec 11
Full

Hourly Weather History & Observations

Time (CST) Temp. Windchill Dew Point Humidity Pressure Visibility Wind Dir Wind Speed Gust Speed Precip Events Conditions
12:53 AM 36.0 °F 28.5 °F 34.0 °F 93% 29.68 in 10.0 mi West 10.4 mph - N/A   Overcast
1:53 AM 37.9 °F 30.9 °F 34.0 °F 86% 29.68 in 10.0 mi WNW 10.4 mph - N/A   Overcast
2:53 AM 36.0 °F 29.0 °F 34.0 °F 93% 29.70 in 10.0 mi West 9.2 mph - N/A   Overcast
3:53 AM 36.0 °F 28.5 °F 33.1 °F 89% 29.71 in 10.0 mi West 10.4 mph - N/A   Overcast
4:53 AM 34.0 °F 26.6 °F 33.1 °F 96% 29.73 in 10.0 mi West 9.2 mph - N/A   Mostly Cloudy
5:18 AM 35.1 °F 27.9 °F 33.1 °F 92% 29.70 in 10.0 mi WNW 9.2 mph - N/A   Overcast
5:53 AM 37.0 °F 28.9 °F 34.0 °F 89% 29.75 in 10.0 mi WNW 12.7 mph - N/A   Overcast
6:53 AM 37.0 °F 28.9 °F 34.0 °F 89% 29.78 in 10.0 mi WNW 12.7 mph - N/A   Overcast
7:53 AM 37.0 °F 29.8 °F 34.0 °F 89% 29.79 in 10.0 mi WNW 10.4 mph - N/A   Overcast
8:53 AM 39.0 °F 32.8 °F 35.1 °F 86% 29.81 in 10.0 mi WNW 9.2 mph - N/A   Overcast
9:53 AM 39.0 °F 33.4 °F 35.1 °F 86% 29.83 in 10.0 mi West 8.1 mph - N/A   Overcast
10:53 AM 41.0 °F 34.7 °F 35.1 °F 79% 29.85 in 10.0 mi WNW 10.4 mph - N/A   Overcast
11:53 AM 43.0 °F 37.2 °F 35.1 °F 74% 29.85 in 10.0 mi WNW 10.4 mph - N/A   Overcast
12:03 PM 43.0 °F 36.4 °F 35.1 °F 74% 29.82 in 10.0 mi WNW 12.7 mph - N/A   Overcast
12:22 PM 44.1 °F 37.7 °F 36.0 °F 73% 29.82 in 10.0 mi WNW 12.7 mph - N/A   Overcast
12:29 PM 43.0 °F 36.0 °F 35.1 °F 74% 29.82 in 10.0 mi WNW 13.8 mph - N/A   Overcast
12:36 PM 43.0 °F 35.7 °F 35.1 °F 74% 29.83 in 10.0 mi WNW 15.0 mph - N/A   Overcast
12:45 PM 43.0 °F 35.7 °F 35.1 °F 74% 29.83 in 10.0 mi WNW 15.0 mph - N/A   Overcast
12:53 PM 43.0 °F 36.4 °F 36.0 °F 76% 29.85 in 10.0 mi NW 12.7 mph - N/A   Overcast
1:15 PM 43.0 °F 36.4 °F 35.1 °F 74% 29.82 in 10.0 mi NW 12.7 mph - N/A   Overcast
1:33 PM 43.0 °F 37.7 °F 35.1 °F 74% 29.83 in 10.0 mi WNW 9.2 mph - N/A   Overcast
1:53 PM 43.0 °F 37.7 °F 35.1 °F 74% 29.86 in 10.0 mi WNW 9.2 mph - N/A   Overcast
2:24 PM 42.8 °F 38.6 °F 35.6 °F 76% 29.83 in 10.0 mi NW 6.9 mph - N/A   Overcast
2:53 PM 43.0 °F 38.8 °F 35.1 °F 74% 29.86 in 10.0 mi WNW 6.9 mph - N/A   Overcast
3:53 PM 41.0 °F 37.1 °F 34.0 °F 76% 29.87 in 10.0 mi NNW 5.8 mph - N/A   Overcast
4:03 PM 41.0 °F 38.0 °F 34.0 °F 76% 29.84 in 10.0 mi NW 4.6 mph - N/A   Overcast
4:53 PM 39.9 °F 36.7 °F 34.0 °F 79% 29.89 in 10.0 mi WNW 4.6 mph - N/A   Overcast
5:53 PM 37.9 °F 33.5 °F 33.1 °F 83% 29.91 in 10.0 mi WNW 5.8 mph - N/A   Overcast
6:06 PM 37.9 °F 33.5 °F 33.1 °F 83% 29.89 in 10.0 mi West 5.8 mph - N/A   Overcast
6:53 PM 37.0 °F 34.5 °F 32.0 °F 82% 29.93 in 10.0 mi WNW 3.5 mph - N/A   Overcast
7:53 PM 37.0 °F 32.4 °F 30.9 °F 79% 29.94 in 10.0 mi WNW 5.8 mph - N/A   Overcast
8:53 PM 37.0 °F 34.5 °F 30.9 °F 79% 29.95 in 10.0 mi North 3.5 mph - N/A   Overcast
9:53 PM 37.0 °F - 30.9 °F 79% 29.97 in 10.0 mi Calm Calm - N/A   Overcast
10:53 PM 35.1 °F 31.0 °F 30.9 °F 85% 29.99 in 10.0 mi WSW 4.6 mph - N/A   Overcast
11:53 PM 34.0 °F - 30.9 °F 89% 29.98 in 10.0 mi Calm Calm - N/A   Overcast